Park Rapids, MN

5:16 PM CDT on August 23, 2016 (GMT -0500)
Park Rapids Municipal

Weather History for KPKD - January, 2014

Change the Weather History Date:

Friday, January 17, 2014

  Actual Average Record
Temperature  
Mean Temperature -4 °F -  
Max Temperature 10 °F 16 °F 40 °F (1986)
Min Temperature -18 °F -5 °F -41 °F (1962)
Degree Days  
Heating Degree Days 69    
Moisture  
Dew Point -7 °F    
Average Humidity 78    
Maximum Humidity 95    
Minimum Humidity 58    
Precipitation  
Precipitation 0.02 in - - ()
Sea Level Pressure  
Sea Level Pressure 29.97 in    
Wind  
Wind Speed 7 mph (SW)    
Max Wind Speed 14 mph    
Max Gust Speed -    
Visibility 7 miles    
Events Fog , Snow    
Averages and records for this station are not official NWS values.
T = Trace of Precipitation, MM = Missing Value Source: NWS Daily Summary

Daily Weather History Graph

Daily Weather History Graph

Search for Another Location

Airport or City:

Trip Planner

Search our weather history database for the weather conditions in past years. The results will help you decide how hot, cold, wet, or windy it might be!

Date:

Astronomy

Jan. 17, 2014 Rise Set
Actual Time 7:59 AM CST 5:01 PM CST
Civil Twilight 7:25 AM CST 5:35 PM CST
Nautical Twilight 6:48 AM CST 6:12 PM CST
Astronomical Twilight 6:12 AM CST 6:49 PM CST
Moon 6:58 PM CST (1/17) 8:19 AM CST (1/17)
Length of Visible Light 10h 09m
Length of Day
9h 01m
Full, 98% of the Moon is Illuminated
Jan 17
Full
Jan 23
Last Quarter
Jan 30
New
Feb 6
First Quarter
Feb 14
Full

Hourly Weather History & Observations

Time (CST) Temp. Windchill Dew Point Humidity Pressure Visibility Wind Dir Wind Speed Gust Speed Precip Events Conditions
12:53 AM -4.0 °F -20.2 °F -9.0 °F 79% 30.08 in 10.0 mi NNW 9.2 mph - N/A   Clear
1:53 AM -6.0 °F -22.6 °F -9.9 °F 83% 30.10 in 10.0 mi NW 9.2 mph - N/A   Clear
2:53 AM -8.0 °F -27.1 °F -11.0 °F 86% 30.12 in 10.0 mi NW 11.5 mph - N/A   Clear
3:53 AM -9.0 °F -28.4 °F -11.9 °F 87% 30.12 in 10.0 mi NNW 11.5 mph - N/A   Clear
4:53 AM -11.0 °F -26.2 °F -15.0 °F 83% 30.13 in 10.0 mi NNW 6.9 mph - N/A   Clear
5:53 AM -11.9 °F -25.7 °F -15.0 °F 86% 30.14 in 10.0 mi NNW 5.8 mph - N/A   Clear
6:53 AM -15.0 °F -32.4 °F -18.9 °F 82% 30.16 in 10.0 mi NW 8.1 mph - N/A   Clear
7:53 AM -16.1 °F -26.2 °F -18.9 °F 87% 30.14 in 10.0 mi NW 3.5 mph - N/A   Clear
8:53 AM -18.0 °F -30.9 °F -20.9 °F 87% 30.14 in 10.0 mi WNW 4.6 mph - N/A   Clear
9:53 AM -15.0 °F -25.0 °F -16.1 °F 95% 30.16 in 9.0 mi West 3.5 mph - 0.00 in   Clear
10:53 AM -9.0 °F -18.2 °F -14.1 °F 79% 30.14 in 9.0 mi WSW 3.5 mph - 0.00 in   Clear
11:13 AM -8.0 °F - -11.0 °F 86% 30.00 in 1.0 mi Calm Calm - N/A   Mist
11:19 AM -7.1 °F -19.9 °F -11.0 °F 83% 30.00 in 0.2 mi West 5.8 mph - 0.00 in Fog , Snow Light Snow
11:23 AM -7.1 °F -21.4 °F -11.9 °F 79% 30.00 in 0.5 mi West 6.9 mph - 0.00 in Snow Snow
11:26 AM -6.0 °F -18.6 °F -11.0 °F 79% 30.00 in 1.2 mi West 5.8 mph - 0.00 in Snow Light Snow
11:28 AM -6.0 °F -18.6 °F -11.0 °F 79% 30.00 in 4.0 mi West 5.8 mph - 0.00 in Snow Light Snow
11:53 AM -5.1 °F -13.6 °F -9.0 °F 83% 30.12 in 10.0 mi WSW 3.5 mph - 0.00 in   Clear
12:53 PM 1.0 °F - -5.1 °F 75% 30.07 in 10.0 mi Calm Calm - N/A   Clear
1:53 PM 6.1 °F - -2.9 °F 67% 30.04 in 10.0 mi Calm Calm - N/A   Clear
2:53 PM 10.0 °F - -2.0 °F 58% 30.03 in 8.0 mi Calm Calm - N/A   Clear
3:53 PM 8.1 °F -4.3 °F -2.0 °F 64% 30.01 in 10.0 mi South 8.1 mph - N/A   Clear
4:53 PM 5.0 °F -8.1 °F -5.1 °F 63% 29.99 in 10.0 mi South 8.1 mph - N/A   Clear
5:53 PM 3.9 °F -6.9 °F -4.0 °F 70% 29.99 in 10.0 mi South 5.8 mph - N/A   Clear
6:53 PM 3.9 °F -6.9 °F -2.9 °F 73% 29.96 in 10.0 mi South 5.8 mph - N/A   Overcast
7:53 PM 6.1 °F -7.8 °F -2.9 °F 67% 29.89 in 10.0 mi SSE 9.2 mph - N/A   Overcast
8:53 PM 6.1 °F -5.6 °F -2.9 °F 67% 29.85 in 10.0 mi SSE 6.9 mph - N/A   Overcast
9:53 PM 7.0 °F -7.5 °F -0.9 °F 70% 29.80 in 4.0 mi SE 10.4 mph - 0.00 in Snow Light Snow
10:11 PM 7.0 °F -8.3 °F -0.0 °F 73% 29.66 in 1.8 mi SE 11.5 mph - 0.00 in Snow Light Snow
10:18 PM 7.0 °F -7.5 °F -0.0 °F 73% 29.66 in 1.5 mi SE 10.4 mph - 0.00 in Snow Light Snow
10:53 PM 7.0 °F -6.6 °F 3.0 °F 84% 29.73 in 1.2 mi ESE 9.2 mph - 0.00 in Snow Light Snow
11:13 PM 7.0 °F -7.5 °F 3.0 °F 84% 29.61 in 0.8 mi SE 10.4 mph - 0.00 in Snow Light Snow
11:36 PM 7.0 °F -9.8 °F 3.9 °F 87% 29.58 in 0.5 mi SE 13.8 mph - 0.01 in Fog , Snow Snow
11:53 PM 8.1 °F -8.4 °F 5.0 °F 87% 29.67 in 0.2 mi SE 13.8 mph - 0.02 in Fog , Snow Heavy Snow